Torna al catalogo

R5-S9

AttivoRadioamatoreSSO
NORAD 69901·PAYLOAD·🇺🇸 United States

Lanciato Jul 7, 2026 da Vandenberg Space Force Base

Loading…

Prossimi Passaggi (prossime 24 ore)

TLE

AggiornatoSource: Space-Track

Epoca: Sep 14, 2026, 12:39 UTC

1 69901U 26156AJ  26257.52736939  .00000844  00000-0  90623-4 0  9991
2 69901  97.7446 156.7458 0003041 257.1992 102.8887 14.91169392 10317

Traccia R5-S9 in tempo reale con AllMySat

Download on the App Store